Location: Eastchurch
(51.4000°N, 0.8667°E)
Time: 20:14:24
(UTC+00:00)

ATLAS 5 CENTAUR R/B - Pass Details

Date: 19 January 2026
Orbit: 367 x 1078 km, 63.3° (Epoch: 15 February)

Event Time Altitude Azimuth Distance (km) Brightness Sun altitude
Rises 19:11:37 0° 293° (WNW) 2,312 5.6 -25.6°
Reaches altitude 10° 19:14:24 10° 323° (NW) 1,537 4.0 -26.0°
Enters shadow 19:15:05 12° 334° (NNW) 1,440 3.7 -26.1°
